Powrót do katalogu

FENGYUN 1C DEB

AktywnySSO
NORAD 31054·DEBRIS·🇨🇳 China

Wystrzelony May 10, 1999 z Taiyuan Satellite Launch Center

Loading…

Następne Przeloty (najbliższe 24 godziny)

TLE

ŚwieżeSource: Space-Track

Epoka: Sep 14, 2026, 00:29 UTC

1 31054U 99025BEY 26257.02065519  .00000125  00000-0  91127-4 0  9990
2 31054  98.6844 266.5766 0010827  62.9405 354.9287 14.12314029  6322

Śledź FENGYUN 1C DEB w czasie rzeczywistym z AllMySat

Download on the App Store